Theta_e
317 317 319 321 322 323 323 328 327 331 332 325 327 322 315 318 319 320 322 321 320 324 325 321 320 319 319 319 319 318 320 324 324 325 323 329 329 325 329 326 329 329 328 333 335 337 338 341 342 342 342 341 341 340 342 342 342 342 341 338 337 338 336 337 336 334 334 335 334 333 334 334 334 335 335 336 336 338 338 338 339 339 339 339 339 338 336 333 332 332 332 333 332 331 330 326 320
321 321 321 321 322 321 324 331 331 336 333 317 319 319 314 320 320 322 325 324 326 324 323 322 321 321 320 319 318 318 319 322 321 323 328 329 326 325 326 327 330 329 330 335 336 336 338 340 341 342 341 341 341 341 342 341 342 342 340 338 337 337 336 336 335 333 335 335 334 334 335 336 336 335 335 335 336 338 338 338 338 338 338 338 338 336 335 334 334 334 333 331 328 327 326 323 319
322 322 321 321 322 323 334 333 329 337 329 314 319 324 317 317 321 324 326 327 329 324 322 320 320 322 321 322 319 319 321 321 319 330 338 328 325 325 323 326 330 331 331 335 337 336 338 339 341 342 341 342 340 341 342 341 343 341 340 338 336 337 335 336 335 334 335 335 336 336 337 337 337 337 336 336 337 337 337 337 337 338 337 337 336 334 334 333 332 332 330 328 324 321 319 317 314
321 323 322 322 323 330 348 339 337 341 325 318 319 323 323 320 325 326 327 327 326 321 320 320 320 319 319 323 320 318 322 322 319 329 339 325 323 323 321 325 329 333 333 335 337 336 337 338 340 341 341 343 341 340 340 341 343 341 341 337 335 336 335 336 335 335 334 336 337 337 337 338 338 337 337 337 337 337 337 337 337 337 336 335 333 332 332 329 327 325 325 325 321 316 314 312 310
320 324 320 320 326 328 341 333 335 334 321 325 317 319 330 327 326 326 327 325 322 321 320 321 320 318 318 322 321 321 323 322 317 321 327 321 323 321 321 325 328 333 334 336 337 336 336 337 340 340 341 343 341 340 341 342 342 341 340 338 336 335 335 336 335 334 334 336 338 337 337 338 338 337 338 337 337 337 336 336 336 336 334 332 332 331 330 327 325 321 319 319 315 311 309 307 306
321 322 319 319 319 319 332 325 323 327 327 331 318 323 332 327 325 323 326 322 321 323 320 319 320 319 319 322 319 320 321 321 320 322 324 321 323 322 322 324 328 333 335 337 337 336 336 337 339 339 341 342 341 340 341 342 341 340 339 338 336 334 335 336 335 334 334 335 338 338 337 338 337 337 338 337 336 335 335 335 335 335 333 331 330 330 329 327 326 322 316 312 309 306 304 303 302
320 320 324 327 320 322 337 326 326 332 325 324 320 322 324 324 322 319 322 320 321 320 318 319 319 319 320 320 318 318 319 321 322 324 325 322 323 322 323 325 328 332 335 338 337 336 335 336 338 339 341 342 341 340 341 341 340 340 339 338 334 333 335 336 335 334 334 335 337 338 337 338 338 338 338 335 334 334 334 334 334 333 332 330 328 328 329 328 327 323 316 309 304 302 301 301 300
320 320 326 337 334 335 340 326 331 334 319 318 320 318 320 324 321 319 322 319 319 319 320 322 320 320 319 317 321 320 318 322 322 323 325 322 322 322 323 324 327 331 335 337 337 337 336 336 337 338 340 341 341 339 341 340 340 340 339 338 332 333 335 335 335 334 334 335 337 337 337 337 338 338 337 335 334 333 332 331 331 331 331 330 327 326 326 326 326 323 318 308 300 300 300 300 300
319 319 326 334 331 336 340 328 326 326 323 321 317 318 322 323 320 319 321 319 318 320 322 323 319 320 320 319 324 322 318 322 321 323 324 321 321 321 323 323 325 330 335 338 337 337 336 336 337 338 339 340 341 339 340 339 339 339 339 337 332 333 335 334 334 334 335 336 337 337 337 337 338 338 336 335 334 332 331 330 330 330 328 326 325 325 324 324 324 322 320 308 299 300 299 300 300
322 320 326 334 331 330 330 326 324 323 325 320 316 320 321 319 319 318 320 319 318 318 320 319 318 320 321 320 323 320 319 322 321 323 322 321 322 321 323 324 326 329 333 337 338 337 336 337 337 339 339 340 341 340 340 339 340 339 339 337 333 333 335 335 334 333 335 337 337 337 338 337 338 338 336 335 334 332 331 331 332 330 328 326 326 326 326 326 324 323 320 308 299 299 299 299 299
331 329 334 340 333 324 319 323 330 329 326 320 319 323 320 318 319 319 320 318 317 317 318 318 319 323 320 321 327 321 318 322 321 321 321 321 321 321 324 326 330 331 332 334 336 337 336 336 337 339 339 340 341 340 339 339 340 339 338 337 334 333 334 335 334 333 334 336 336 337 338 337 338 338 337 336 334 333 332 333 332 331 329 328 328 326 326 326 325 324 318 306 299 299 299 299 299
328 333 346 346 329 321 322 327 328 333 332 323 321 322 318 317 318 318 319 317 317 318 319 318 319 320 319 323 328 318 316 322 320 320 321 320 321 322 325 327 330 332 333 334 335 337 336 336 337 339 339 339 340 340 339 339 340 339 338 338 336 333 333 334 334 333 333 335 335 336 337 337 337 337 337 336 335 334 333 333 332 331 330 329 327 325 326 325 325 324 316 303 299 299 299 299 299
332 333 340 331 324 324 322 325 328 333 334 322 319 319 315 316 317 317 319 318 317 317 317 319 318 318 320 322 324 321 318 320 320 319 319 320 321 322 325 329 330 333 335 335 336 336 336 336 336 338 339 339 340 339 339 339 340 339 338 338 336 333 333 333 334 333 332 333 334 335 336 337 337 337 337 336 335 334 334 333 332 332 330 329 326 324 324 324 325 323 314 302 299 298 299 299 299
332 335 334 319 322 328 322 321 326 326 321 319 321 319 317 316 316 318 318 317 318 318 315 316 317 317 318 317 325 331 322 318 320 318 318 319 320 321 324 330 332 333 335 336 336 336 336 336 335 337 338 340 340 339 339 339 340 339 338 338 336 334 333 333 333 333 332 332 333 334 335 336 337 337 337 336 335 334 334 333 332 332 331 328 326 324 322 322 322 321 314 302 299 298 298 299 298
323 338 341 324 322 327 323 320 322 321 318 319 318 315 318 317 315 318 317 315 318 318 313 313 314 316 317 315 322 326 317 316 319 318 317 318 319 320 322 328 333 333 334 336 337 337 337 337 336 336 338 339 340 339 339 339 340 339 338 338 337 334 333 334 332 333 332 330 332 333 335 336 337 337 337 336 336 335 334 333 333 332 331 328 326 324 323 320 318 318 312 302 299 298 298 299 298
327 339 335 323 320 319 321 321 320 321 320 321 318 314 317 317 315 316 316 314 316 316 314 315 314 314 317 316 317 316 314 316 318 319 319 319 320 321 322 326 331 332 331 335 337 338 337 337 337 336 336 338 339 339 339 339 340 339 339 338 337 335 334 334 332 332 332 330 331 332 334 335 337 337 337 336 336 335 334 333 333 332 331 328 326 324 323 320 317 315 310 302 299 298 298 298 298
332 336 330 322 321 319 321 323 319 318 322 325 321 316 316 317 317 314 313 313 317 317 315 317 314 313 317 317 314 313 315 317 318 320 319 319 321 321 323 325 328 329 329 330 334 337 337 338 338 337 336 337 338 339 339 339 339 339 339 339 338 336 334 334 333 333 332 331 331 332 333 335 336 336 336 336 335 335 334 333 332 332 331 328 326 325 324 320 317 315 311 304 300 298 298 298 298
334 332 324 321 326 326 326 329 322 317 319 320 318 315 314 316 317 315 313 314 318 318 315 315 314 313 314 314 312 311 313 316 318 320 319 320 321 322 324 325 327 329 328 328 330 334 336 337 337 338 338 337 337 339 340 339 339 339 339 339 338 337 335 334 334 334 333 332 331 332 333 334 335 335 335 335 335 334 334 333 332 331 330 329 326 325 324 320 316 315 313 308 302 298 298 298 298
336 332 319 326 334 328 326 328 323 317 317 318 317 315 314 315 315 313 314 316 317 317 315 314 315 315 313 312 311 312 313 316 318 319 320 320 320 322 322 323 327 328 327 327 327 331 334 335 336 337 338 338 337 338 339 339 338 338 339 339 339 338 337 335 334 335 334 333 332 332 333 334 335 335 335 335 335 334 334 333 331 329 330 329 326 325 324 321 316 314 314 311 304 298 298 297 298
331 327 321 335 336 326 325 324 320 318 315 315 317 315 315 315 314 313 314 316 317 316 316 314 315 317 315 313 310 311 314 316 318 319 320 320 321 321 321 322 324 325 323 323 326 328 331 333 335 336 338 339 338 338 338 339 339 338 338 339 339 338 338 336 335 335 335 334 333 333 333 334 335 334 334 334 334 334 334 332 330 329 329 328 326 325 323 321 317 315 314 312 305 298 298 297 298
321 321 326 335 325 321 324 324 322 319 314 313 315 315 315 315 313 314 315 316 317 316 315 315 315 315 316 314 310 309 311 314 317 318 318 318 319 320 320 320 319 320 320 322 324 324 326 330 333 335 337 338 339 338 338 338 339 338 338 339 340 339 338 338 337 336 336 335 335 334 333 334 335 335 334 333 333 333 333 332 330 330 330 328 326 325 324 321 318 316 315 312 307 301 298 297 297
319 322 327 328 320 318 321 323 321 316 314 314 315 315 315 314 314 315 315 315 316 315 315 315 314 313 314 312 309 307 310 313 314 315 317 317 317 318 318 318 318 319 320 321 320 320 322 325 329 333 335 337 338 339 338 338 338 339 338 338 339 340 340 338 337 337 337 337 336 335 335 334 334 335 335 333 333 333 333 332 331 331 330 328 326 325 324 322 320 317 315 313 309 304 300 297 297
320 323 324 324 320 317 320 320 319 316 314 315 315 314 312 313 314 316 315 315 315 315 315 313 312 311 310 309 309 309 312 314 310 310 313 314 315 315 315 316 317 317 318 319 318 320 321 321 326 330 333 335 336 338 338 337 338 338 338 337 337 339 340 339 338 338 338 337 336 336 336 335 334 334 335 334 333 332 332 332 331 331 330 328 327 325 324 323 321 319 317 315 312 308 302 298 296
319 323 323 321 318 318 321 319 319 317 314 315 314 311 312 313 314 315 315 314 314 314 313 311 308 306 307 309 311 310 308 307 305 305 307 308 309 310 310 311 312 313 315 316 317 319 320 321 324 327 330 332 334 336 337 337 337 337 338 338 336 336 338 339 338 337 338 338 337 337 336 336 335 334 335 334 332 332 332 331 331 330 329 328 326 325 324 323 322 321 319 317 314 311 306 301 297
319 322 322 318 316 319 321 319 318 317 314 313 312 312 313 312 313 313 313 313 313 312 312 311 309 307 308 308 308 306 305 305 304 305 306 306 306 307 308 309 309 310 312 313 314 316 318 320 322 324 326 329 332 334 336 337 336 336 337 338 338 336 336 338 340 338 338 339 338 337 336 335 335 335 335 334 333 332 332 332 331 330 329 328 327 325 324 323 323 322 320 319 317 313 309 304 299
319 320 318 316 315 316 316 316 316 314 313 312 311 314 312 311 312 313 316 315 311 311 313 313 312 312 308 306 306 306 307 306 304 305 305 305 306 307 307 308 310 310 310 311 313 314 315 317 319 320 323 326 330 332 334 335 335 335 336 337 338 337 335 335 337 338 336 336 338 338 337 335 335 335 335 334 333 333 332 332 331 330 329 328 327 326 325 324 323 322 322 320 318 315 311 307 303
315 316 315 314 314 314 314 316 314 312 312 312 312 315 313 311 312 315 319 316 310 313 315 312 313 313 309 307 306 306 306 305 304 304 304 304 305 305 305 307 309 311 311 311 312 313 314 316 317 318 321 325 328 330 332 333 334 334 334 335 336 336 335 333 334 337 337 335 335 337 336 335 335 335 335 334 334 333 333 332 331 330 329 328 327 327 326 325 324 323 322 320 319 316 313 310 307
312 313 314 315 315 314 314 315 314 312 313 313 313 315 314 310 312 317 318 313 311 314 313 312 314 313 310 309 307 305 304 304 304 303 303 303 303 303 304 304 307 311 313 312 312 313 313 314 316 318 320 323 325 327 329 331 332 332 332 333 333 333 333 332 332 335 338 337 336 336 335 334 334 335 335 335 334 333 333 332 331 330 330 328 327 327 326 325 324 323 321 320 318 316 315 313 311
312 313 314 317 318 316 315 314 313 312 313 315 314 315 318 315 316 320 315 312 314 314 312 312 313 311 310 308 306 305 304 303 303 303 303 302 302 303 303 304 306 311 314 315 314 314 316 317 318 320 322 323 325 326 327 328 330 330 331 331 331 332 333 333 332 333 335 337 336 335 334 333 333 333 334 334 334 333 332 332 331 330 330 328 327 326 326 325 324 322 321 320 318 317 315 314 313
314 314 313 315 317 320 317 312 311 312 314 315 313 316 326 324 321 321 314 310 314 316 313 312 310 309 309 308 306 305 303 302 302 302 302 302 302 302 303 305 307 310 315 317 318 318 320 321 323 324 324 325 325 327 328 328 329 330 330 331 331 332 333 334 333 332 332 333 333 332 332 332 332 332 331 332 332 332 332 332 331 330 330 328 327 326 325 325 323 322 321 319 318 317 315 313 313
315 312 315 317 316 324 324 313 313 314 313 313 312 317 324 324 322 320 312 308 313 314 313 311 310 308 308 307 305 305 303 302 302 301 301 301 301 302 302 304 306 310 314 317 319 321 322 324 325 326 326 326 326 327 327 328 328 329 330 331 332 333 334 334 334 332 332 332 333 332 332 332 332 331 329 329 330 331 331 331 331 330 329 328 327 326 325 324 323 322 321 319 318 316 315 314 312
323 313 321 325 316 323 325 314 315 316 313 311 312 318 321 319 320 319 311 309 312 312 312 312 311 308 307 306 304 304 302 301 301 300 301 301 301 301 302 303 305 308 311 314 317 320 322 323 325 326 326 327 327 327 327 327 328 328 330 330 331 333 333 334 334 334 333 334 333 332 332 332 332 331 330 330 330 331 330 330 330 330 329 327 326 326 325 324 323 322 320 319 318 316 315 314 313
328 317 321 328 320 319 320 316 316 315 313 311 311 317 319 317 321 320 312 310 313 313 313 312 309 307 305 304 303 302 301 301 300 300 300 300 300 300 301 303 304 306 309 312 315 317 320 321 323 324 325 326 326 327 327 327 328 329 329 330 330 330 331 332 333 333 333 333 333 332 332 332 332 332 331 331 331 331 330 330 330 330 329 327 326 326 325 324 322 321 320 319 318 316 315 314 313
328 320 317 323 320 317 318 318 317 314 313 313 312 314 316 317 318 317 312 311 314 313 313 311 306 305 304 303 302 301 301 300 300 299 299 299 300 300 301 302 304 306 308 310 313 315 317 319 321 322 323 324 325 326 327 327 328 328 328 327 327 328 328 329 329 329 329 330 330 329 330 330 330 331 331 331 330 330 330 330 330 329 328 327 326 325 324 323 322 320 320 319 318 316 315 314 313
327 323 319 322 320 316 317 318 318 317 315 315 315 315 317 317 317 316 311 311 314 312 310 308 305 304 303 302 302 301 300 300 299 299 299 299 299 300 300 302 304 306 307 309 311 312 315 317 318 320 321 322 323 324 324 325 325 325 325 325 325 324 324 325 325 325 325 325 325 325 326 326 326 327 327 328 328 328 328 328 328 327 326 325 324 324 323 322 321 320 319 318 318 316 315 314 313
323 322 320 322 321 319 317 315 316 315 314 316 316 316 317 317 318 315 309 310 312 309 307 306 304 303 302 302 301 301 300 300 299 298 298 298 298 299 300 300 302 304 306 307 309 310 312 314 315 316 317 318 320 321 322 322 323 322 322 323 321 321 321 322 322 321 321 321 321 322 322 322 322 323 323 324 324 324 324 324 324 323 323 322 322 322 321 321 320 319 318 318 316 315 315 313 312
316 316 318 319 318 318 315 314 316 313 313 319 319 317 318 318 318 312 307 313 313 307 307 306 304 303 302 302 301 301 300 299 298 298 298 298 298 298 299 299 301 302 304 304 306 307 308 310 312 312 313 314 316 317 318 319 319 319 319 318 317 317 318 319 319 318 318 318 318 318 318 318 319 319 320 321 321 321 321 321 321 320 320 319 319 318 318 318 317 316 315 315 314 313 313 313 311
313 314 316 317 317 316 314 314 315 313 314 320 320 317 320 319 316 310 307 313 312 306 307 305 304 303 302 302 301 300 300 299 298 297 297 297 297 298 298 298 299 300 300 301 302 303 305 307 307 308 310 312 313 314 315 315 316 316 315 314 313 313 313 313 313 313 314 315 315 315 315 315 315 316 316 317 318 318 318 318 317 317 317 316 316 316 315 315 314 314 313 312 311 310 310 310 308
313 314 314 316 317 317 319 319 317 315 315 322 322 317 320 318 313 308 307 308 306 304 305 304 303 303 301 301 300 300 299 299 297 296 296 296 296 297 297 297 297 297 298 299 300 301 303 303 304 305 306 308 309 311 312 312 312 313 312 311 310 310 308 308 308 308 309 310 310 310 310 311 311 311 312 312 313 313 313 314 313 313 313 313 313 313 312 312 312 312 311 311 310 308 307 307 306
315 316 315 318 317 317 323 323 320 317 314 319 320 317 320 318 311 308 306 305 304 303 303 303 302 302 301 300 299 299 299 298 297 296 295 295 295 295 296 296 296 296 297 298 298 299 300 301 302 303 304 304 305 307 308 308 309 310 309 309 309 308 306 306 307 306 306 307 308 308 308 308 308 307 307 307 307 307 308 308 309 309 310 310 310 310 310 310 310 309 309 309 308 306 306 306 306
319 319 316 318 318 317 321 320 320 320 318 318 316 319 327 323 315 311 307 305 305 303 302 302 301 301 300 299 299 298 297 297 296 295 294 294 294 294 294 295 295 295 296 296 296 297 298 299 300 301 302 303 304 304 305 306 307 307 307 307 307 306 305 305 305 304 304 305 305 306 307 307 306 305 305 304 304 304 304 304 304 305 305 306 306 307 307 307 307 308 307 306 306 305 305 305 305
322 323 319 317 319 318 319 319 318 322 325 320 315 323 336 333 322 314 309 307 306 304 303 302 301 301 300 299 299 298 297 296 295 294 294 293 293 293 294 294 295 295 295 295 295 296 297 298 299 300 300 301 302 303 303 304 304 304 304 303 302 301 300 300 300 300 301 302 302 303 305 305 305 304 304 304 303 303 303 303 302 302 302 302 303 303 304 304 305 305 305 305 304 303 303 302 302
322 324 321 318 317 316 318 319 319 324 327 317 312 319 330 334 328 316 310 309 306 304 303 302 301 300 299 299 298 297 297 296 295 294 293 292 293 293 293 293 294 294 294 295 295 296 296 297 298 299 299 299 300 300 301 302 302 301 301 300 298 298 297 297 297 298 299 300 301 302 302 303 303 303 303 303 303 303 302 302 302 302 301 301 301 301 301 301 302 302 303 303 303 302 301 300 300
325 323 322 323 319 319 321 320 320 324 322 320 319 317 319 326 325 315 311 312 308 305 304 302 301 300 299 299 298 297 297 296 296 295 293 292 292 292 292 293 293 293 294 294 295 295 296 297 297 298 298 298 298 299 299 300 300 299 299 298 298 297 297 297 297 298 299 299 300 300 300 300 301 301 301 301 301 301 301 301 301 301 301 301 301 301 301 300 300 300 301 301 302 302 301 299 299
326 320 319 323 322 323 325 322 322 319 316 323 327 317 316 324 323 313 310 314 313 307 304 302 301 300 299 298 298 297 297 296 295 295 293 292 292 292 292 292 293 293 293 293 294 295 295 296 297 298 298 298 298 298 298 299 298 298 298 298 297 297 297 297 297 298 298 298 298 298 298 299 299 299 299 299 299 299 299 299 300 300 300 300 300 300 300 300 300 300 299 299 300 300 300 300 298
319 315 318 322 321 323 325 324 324 319 316 323 325 318 318 325 326 317 311 315 317 310 304 302 301 300 299 299 298 297 297 297 295 293 292 292 292 292 292 292 292 293 293 293 293 294 294 295 296 296 296 296 296 297 297 297 297 297 297 297 296 296 296 296 296 296 296 296 296 296 296 296 296 297 297 297 297 297 297 298 298 298 298 298 299 299 299 299 299 299 299 299 298 298 298 298 298
313 316 322 324 323 323 324 324 322 318 322 325 322 318 318 322 328 323 315 314 314 309 304 303 301 300 300 299 298 297 297 297 296 293 292 292 292 292 292 292 292 292 293 293 293 293 293 293 294 294 293 293 294 294 295 295 295 295 295 294 294 294 294 294 294 294 293 294 293 293 293 293 294 294 294 294 294 294 295 295 296 296 296 297 297 298 298 298 298 298 298 298 297 297 297 297 297
315 321 325 324 324 323 322 324 321 321 327 325 318 316 314 320 325 319 313 309 306 307 305 303 302 301 300 299 298 297 297 297 296 295 293 292 291 291 292 292 292 292 293 293 293 292 292 292 292 292 291 292 292 293 293 293 293 293 293 293 292 292 292 292 292 291 291 291 291 291 291 291 292 292 292 292 291 292 292 293 293 294 294 295 295 296 296 297 297 297 297 297 296 296 296 295 295
318 323 324 324 325 323 323 325 322 323 324 317 315 315 314 321 320 313 310 307 304 306 304 301 301 301 300 300 298 297 297 296 296 296 294 291 291 291 291 291 291 292 292 292 292 292 292 291 291 291 290 290 290 291 291 291 291 290 290 290 289 289 289 289 289 288 288 288 288 288 288 288 288 288 289 289 289 289 289 290 290 291 291 292 293 294 294 295 296 296 296 296 295 295 295 295 295
316 320 324 324 325 325 327 325 319 320 321 314 313 315 316 321 316 308 306 304 302 303 302 300 300 300 300 300 299 298 297 296 295 295 294 291 291 291 291 291 291 291 291 291 292 292 291 291 291 290 289 289 289 289 289 289 288 288 288 287 287 287 287 286 286 286 286 286 286 286 286 285 286 286 286 286 286 286 287 287 287 287 288 288 289 290 291 292 293 293 294 294 294 293 293 293 294
315 319 321 322 326 328 328 326 321 322 322 315 311 315 323 324 313 303 302 301 300 302 301 300 300 299 300 299 299 298 297 296 295 295 293 291 291 292 291 291 290 290 290 290 291 291 291 290 290 289 289 288 288 288 288 288 287 287 287 287 287 287 286 286 286 286 286 286 285 285 285 285 285 285 286 286 286 286 286 286 286 286 286 286 286 287 287 288 288 289 290 291 292 292 292 293 293
315 315 317 320 324 323 321 322 320 319 322 318 315 319 321 315 306 301 302 301 300 301 301 301 301 300 300 299 299 299 298 296 295 295 293 291 291 292 291 291 290 290 290 290 290 290 290 290 289 289 289 288 288 288 288 288 287 288 287 287 287 287 287 287 286 286 286 286 286 286 286 286 286 286 286 287 286 287 287 287 287 286 286 286 286 286 286 286 286 286 286 287 287 288 289 291 292
316 314 319 320 317 319 321 320 315 315 320 320 318 320 315 309 307 303 302 302 300 301 301 300 301 300 300 300 300 300 299 297 296 295 293 291 292 292 291 291 290 289 290 289 289 290 290 289 289 289 289 288 288 288 288 288 288 288 287 287 287 287 287 287 287 287 287 287 287 287 287 287 287 287 287 287 287 287 287 287 287 287 287 287 287 287 287 287 286 286 286 286 286 285 286 286 287
319 319 321 316 313 319 323 322 320 319 321 319 318 320 317 316 315 305 301 303 302 301 301 300 300 300 301 301 300 300 299 298 297 295 292 291 292 292 292 291 290 289 289 289 289 289 289 289 289 288 288 288 288 288 288 288 288 288 288 288 287 287 287 287 287 287 287 288 288 288 288 288 288 288 288 288 288 288 288 288 287 287 287 287 287 287 287 287 287 287 287 287 286 286 286 286 285
317 319 316 314 318 323 320 320 323 322 321 322 321 319 317 318 317 310 306 304 302 301 301 301 301 301 301 301 301 300 299 298 297 295 293 291 292 292 292 292 291 289 289 289 289 289 289 288 288 288 288 287 287 287 287 288 288 288 288 288 288 287 287 287 287 287 287 288 288 288 288 288 287 287 287 287 287 287 287 287 287 287 287 287 287 287 287 287 286 286 286 287 286 286 286 286 286
311 313 312 314 319 323 320 318 321 323 321 322 322 318 319 320 319 317 312 304 301 302 301 300 301 301 301 301 301 300 300 297 296 297 294 291 291 292 291 292 291 290 289 289 289 289 288 288 288 288 287 287 287 287 287 288 288 288 287 287 287 287 287 287 287 287 287 287 287 287 287 287 287 287 287 287 287 287 287 287 287 287 287 287 287 287 287 287 286 286 286 286 286 286 285 285 286
314 315 316 316 315 317 319 317 318 322 321 321 320 318 323 323 315 315 312 303 300 301 301 301 301 301 301 301 301 300 299 297 297 297 294 291 291 292 291 291 291 290 290 289 289 288 288 288 288 287 287 287 287 287 287 287 287 287 287 287 287 287 287 287 287 287 287 287 287 287 287 286 286 286 286 286 286 286 286 286 286 286 286 286 286 286 286 286 286 286 286 286 285 285 285 285 285
319 319 319 318 317 317 319 317 317 319 319 322 320 318 322 319 309 309 309 303 301 301 301 302 302 302 302 301 302 301 299 298 297 296 293 291 291 291 291 291 290 290 290 289 289 289 288 288 288 287 288 288 288 288 288 288 288 288 288 288 287 287 287 287 287 287 287 287 287 286 286 286 286 286 286 286 286 286 286 285 285 285 285 285 285 285 285 285 284 284 284 284 284 284 284 284 284
Wind_Speed
10 10 9 9 9 7 4 3 2 2 4 2 2 0 3 3 1 1 3 3 1 3 4 2 3 2 1 1 4 4 4 5 4 4 2 5 3 5 17 13 6 12 22 23 26 30 29 28 26 24 24 22 22 21 20 18 18 17 15 13 13 13 13 13 12 11 10 9 8 8 8 8 8 8 9 9 9 9 9 9 8 8 8 7 6 3 3 3 2 1 1 2 3 4 5 6 6
9 9 7 7 7 3 1 3 3 3 6 2 2 2 3 2 1 3 5 4 4 4 3 0 2 2 2 2 2 1 2 5 5 3 3 4 2 7 18 15 9 11 21 22 25 30 29 29 27 25 24 23 22 22 21 20 19 18 17 15 14 14 13 13 12 12 10 10 8 8 8 7 7 7 9 9 9 8 8 9 8 8 7 6 4 2 2 2 1 2 1 2 3 4 5 6 7
10 9 8 6 3 3 1 4 3 1 5 1 4 4 2 1 4 7 8 8 7 5 4 1 0 1 3 4 1 2 3 4 3 3 3 4 3 7 17 17 11 11 18 21 24 29 30 29 28 26 25 24 23 22 21 20 19 19 18 16 15 15 14 13 11 11 11 10 9 8 8 8 8 8 9 9 9 8 8 9 8 7 6 5 3 2 2 2 1 3 4 4 4 5 6 6 7
9 9 9 4 1 4 4 4 2 4 3 3 2 4 2 3 7 7 8 8 6 4 4 0 1 1 3 2 1 1 4 4 3 4 1 4 5 5 15 18 13 13 18 21 23 28 30 30 29 27 26 25 24 22 22 21 20 19 19 18 17 16 16 14 13 12 12 11 9 9 9 9 10 10 10 9 8 8 8 8 8 8 8 5 2 2 1 2 4 5 6 6 5 6 6 6 7
8 6 8 4 2 2 3 3 2 4 2 4 1 4 5 6 6 6 7 7 5 1 1 1 1 2 1 2 2 1 4 3 3 5 2 4 7 6 14 17 15 15 18 21 22 27 30 30 29 28 27 26 25 24 23 22 22 20 19 18 17 18 18 16 14 14 13 12 10 10 10 10 11 10 10 9 9 8 7 7 8 9 8 4 2 1 3 5 6 8 7 7 6 6 6 6 6
6 4 7 6 3 1 3 3 1 1 4 5 2 6 6 6 6 5 6 7 3 3 3 1 0 1 1 3 2 3 4 0 1 5 4 4 7 8 14 16 14 15 18 20 22 26 29 30 30 29 28 27 25 24 24 24 23 20 19 19 18 19 18 16 16 15 14 13 12 12 11 12 11 11 11 10 9 8 7 7 9 9 7 5 2 0 4 6 7 9 8 6 5 5 6 6 6
8 3 4 6 2 2 4 3 3 2 3 5 4 5 6 6 4 2 5 4 2 2 1 1 0 1 2 3 2 4 3 3 2 3 4 6 8 10 14 14 14 15 18 20 22 26 28 30 30 30 30 28 26 25 25 24 23 21 20 20 19 19 18 17 17 16 16 14 13 13 12 13 12 12 12 11 10 8 6 7 9 9 8 6 4 3 4 7 8 8 8 6 4 5 5 5 5
8 3 1 4 2 3 5 2 3 3 1 3 4 5 7 7 3 0 3 1 1 3 1 2 2 1 3 3 2 5 3 5 5 4 6 8 9 11 14 14 14 16 18 19 21 24 27 30 31 31 31 29 27 26 26 25 24 22 20 20 20 20 18 18 18 17 17 15 14 14 14 14 13 13 13 13 10 7 6 7 7 7 7 7 7 6 6 7 8 9 8 6 4 4 4 3 3
6 4 1 4 2 3 3 1 3 3 3 3 4 6 6 4 3 1 2 2 1 1 4 3 2 0 4 4 3 6 4 5 5 6 9 9 10 11 13 13 13 15 18 19 20 23 26 29 31 31 31 30 28 27 27 25 24 23 21 21 21 20 18 19 19 19 17 15 14 15 15 15 15 14 15 14 12 8 7 6 5 6 6 6 7 7 9 8 9 9 7 6 4 3 3 2 2
4 5 2 3 3 3 3 2 2 2 5 4 4 7 6 2 2 1 1 3 1 0 5 2 1 1 3 4 4 3 3 4 3 7 10 10 11 11 12 12 12 14 16 19 20 21 25 28 31 31 31 31 29 29 27 26 25 24 23 22 22 21 20 19 19 19 19 16 15 16 15 16 16 15 14 14 13 11 9 7 6 6 5 6 7 9 9 7 8 9 7 5 3 2 2 2 2
3 4 3 4 4 2 1 3 4 4 7 5 5 8 6 2 1 1 1 3 2 1 3 1 0 2 1 4 4 3 3 5 5 6 9 10 11 12 12 12 13 13 14 16 18 20 23 27 30 31 31 31 30 30 28 27 27 26 24 23 24 23 22 21 20 20 20 18 17 17 16 16 17 16 15 15 14 12 11 9 8 7 6 8 8 10 7 5 6 7 7 6 3 2 2 3 2
2 4 4 4 2 1 2 2 5 6 7 4 4 5 1 3 1 2 2 3 3 4 4 2 1 2 1 4 4 5 6 6 6 6 8 10 11 13 12 12 13 14 14 14 16 18 20 25 29 31 31 31 31 30 29 28 28 28 26 24 25 25 24 23 21 21 22 20 18 18 16 16 18 18 16 15 15 14 12 10 9 8 8 8 9 9 6 6 5 5 8 6 3 3 3 3 3
3 1 4 3 2 2 1 2 4 5 6 2 3 4 1 1 2 5 4 1 2 4 5 5 3 3 1 4 4 7 7 5 7 8 8 9 10 13 14 14 13 14 15 15 16 17 19 23 28 31 31 31 31 31 30 29 29 28 27 25 25 25 25 24 23 22 23 22 20 19 17 17 18 19 18 16 16 15 13 11 10 9 8 8 9 8 6 7 6 6 9 6 4 4 3 4 3
2 3 4 2 1 1 2 2 2 1 3 4 3 4 3 1 3 3 4 3 5 3 2 4 5 2 2 3 5 5 4 2 7 9 8 9 11 12 14 16 15 15 15 17 18 17 18 21 25 30 32 31 31 30 30 29 30 29 28 26 26 26 26 25 24 23 23 23 22 20 18 17 18 20 19 17 16 15 14 12 10 9 9 9 8 8 8 8 7 7 9 6 4 4 4 4 4
3 2 4 3 2 2 2 2 1 3 3 4 2 3 4 3 2 1 3 2 6 4 1 1 4 1 2 2 5 6 4 3 6 9 8 10 11 12 13 16 17 16 16 18 19 19 19 20 23 28 31 32 32 31 30 30 29 29 29 27 26 26 27 25 24 23 22 23 23 21 20 18 18 20 20 19 17 16 15 12 11 10 9 9 9 8 9 10 9 8 8 6 5 5 5 4 4
3 3 5 2 1 2 3 2 2 3 4 5 3 3 5 6 1 1 4 4 4 3 1 2 2 2 3 5 7 5 5 3 5 8 9 11 12 12 12 15 18 17 17 18 20 21 20 20 22 25 30 32 32 32 31 30 30 29 29 28 27 27 27 26 24 23 22 22 23 23 21 19 18 20 21 20 18 16 15 13 11 10 10 10 9 9 9 11 11 10 9 7 6 6 5 5 5
3 4 4 1 1 2 3 4 3 2 4 6 6 5 2 8 3 2 2 4 4 4 2 5 3 1 5 5 5 5 6 4 5 8 10 11 11 12 12 14 17 18 18 20 21 22 22 22 23 25 28 31 32 32 32 31 30 30 29 28 27 27 27 27 25 23 22 22 23 23 21 19 19 20 21 21 19 17 16 14 13 11 11 11 10 10 10 11 11 11 10 8 7 7 6 5 6
4 4 3 1 3 3 5 6 6 3 4 6 5 3 1 6 6 3 3 2 4 6 5 5 6 6 9 11 10 9 8 6 6 9 10 11 11 12 14 16 18 20 20 21 23 24 24 24 24 25 27 29 31 32 32 31 31 30 30 29 28 27 27 26 26 24 23 23 22 23 22 20 20 20 21 22 21 19 17 15 13 12 13 13 12 11 10 11 12 12 11 9 9 8 6 7 7
3 3 2 3 5 5 5 7 5 3 4 6 5 3 3 6 4 3 5 7 6 8 8 3 5 9 10 13 12 11 8 6 8 10 11 13 14 15 18 18 20 22 22 23 25 25 25 26 26 27 28 28 30 32 32 31 31 30 30 30 29 28 27 27 26 25 24 23 23 23 22 21 21 21 21 22 21 19 18 16 14 13 14 14 12 11 11 11 12 13 12 10 10 8 7 8 8
2 4 1 6 6 4 5 6 6 6 4 5 6 3 2 6 3 1 3 8 8 8 8 3 6 10 10 9 7 9 8 6 9 11 13 15 17 19 19 20 22 24 25 25 24 25 26 27 27 27 28 29 30 31 32 32 31 31 30 30 30 29 28 27 27 27 25 24 23 23 23 22 21 21 21 21 21 20 19 17 15 14 15 15 13 12 11 12 12 13 13 12 12 9 8 9 9
1 4 4 6 3 2 6 7 7 7 4 3 4 4 6 6 2 1 2 7 10 9 7 6 7 9 10 10 7 8 8 8 9 11 13 16 18 20 22 23 24 24 23 23 24 25 26 27 27 27 28 29 30 31 32 32 31 31 30 30 31 30 29 29 28 27 26 25 24 23 23 23 22 22 22 21 22 21 20 18 16 16 17 15 13 13 13 13 13 14 15 16 14 10 9 10 10
2 3 6 5 4 3 7 5 5 3 2 3 4 5 6 4 1 2 1 4 8 9 9 7 7 7 9 10 10 8 7 8 9 11 13 16 18 20 22 24 24 23 21 23 25 26 26 26 27 27 27 28 30 31 31 32 31 31 31 31 30 29 29 30 29 28 28 26 24 24 24 23 23 23 23 22 22 22 21 19 18 18 17 15 14 14 14 14 15 16 17 18 17 12 10 11 11
2 4 3 4 4 4 6 3 4 1 1 6 4 4 2 4 6 4 5 10 11 12 13 8 4 4 8 10 9 8 7 7 8 10 13 15 18 21 22 22 23 22 22 26 27 25 25 26 27 27 27 28 29 29 30 31 31 31 30 31 31 29 27 29 30 29 29 28 25 24 24 24 23 24 24 22 22 22 22 20 19 19 18 15 14 15 16 16 17 18 19 20 20 16 12 12 12
2 4 5 4 3 5 7 5 6 4 4 8 3 4 4 3 7 3 6 13 12 13 13 9 4 4 7 7 7 8 6 6 8 9 9 9 13 16 16 18 20 21 23 27 26 25 25 26 26 27 27 27 28 28 29 30 30 30 29 29 30 29 27 27 29 30 29 29 28 26 24 24 24 24 25 24 23 22 22 21 21 20 18 15 14 16 18 19 19 19 20 21 22 20 15 13 13
3 5 4 3 2 6 7 6 8 7 6 7 3 6 7 7 4 3 12 17 10 9 9 8 6 8 7 7 7 7 7 8 11 13 14 14 14 14 13 13 13 14 20 23 22 22 23 24 25 26 27 27 27 27 28 29 29 29 29 28 28 29 29 27 26 29 29 27 28 28 25 25 25 26 26 25 24 23 23 22 21 20 19 18 17 18 19 20 21 21 21 22 23 22 19 15 14
4 5 3 4 6 6 7 7 8 6 4 2 3 11 8 4 2 3 14 15 6 4 4 7 8 9 7 7 7 7 8 11 14 14 16 19 21 21 21 19 15 10 13 16 17 18 19 20 22 24 26 26 26 27 27 28 28 29 29 28 27 27 28 26 24 27 30 28 26 27 26 25 25 26 26 26 25 24 24 22 21 21 21 21 20 20 20 21 22 22 22 22 23 24 22 18 16
4 3 4 5 7 8 4 7 8 4 5 4 6 12 7 2 1 3 10 6 3 6 7 7 8 7 6 6 6 8 10 12 15 16 18 23 25 25 25 24 21 15 9 8 11 13 13 15 17 19 23 25 26 26 26 26 27 27 28 28 27 26 26 25 23 24 26 28 27 27 26 25 26 27 27 26 26 25 24 23 23 23 24 24 22 22 22 21 22 22 22 22 22 24 24 21 19
2 1 5 7 7 8 6 7 8 3 4 5 7 7 5 2 1 7 9 2 6 6 7 7 8 6 6 6 7 8 9 13 17 18 18 19 20 22 24 25 23 18 12 7 5 7 8 9 11 14 18 21 24 25 25 25 25 25 25 25 26 26 25 23 23 23 22 24 26 27 26 25 26 27 27 27 27 26 25 24 24 24 25 24 23 22 21 21 21 22 21 21 22 23 23 23 21
0 2 4 8 8 8 9 5 3 0 2 4 6 3 6 1 6 11 8 6 7 7 7 7 7 6 6 6 6 7 9 14 18 19 17 17 19 20 22 24 23 20 17 12 5 2 1 3 5 8 12 16 20 22 22 23 23 22 22 22 22 23 23 22 21 22 22 21 23 24 25 26 26 25 25 26 26 25 25 24 24 23 24 24 23 23 22 21 21 21 21 21 22 22 23 24 23
2 2 1 6 7 7 8 1 2 2 2 4 3 3 7 6 11 12 6 5 7 8 7 6 5 5 5 6 6 6 9 13 16 18 19 19 20 21 23 24 24 23 21 18 14 10 7 4 2 2 5 9 13 17 19 19 20 19 19 19 19 19 20 21 20 20 20 20 21 21 21 23 23 22 22 22 22 24 26 25 23 23 24 24 24 23 22 21 21 21 21 21 22 22 23 23 23
2 2 0 2 2 5 8 2 0 4 2 2 3 2 6 9 12 12 4 3 5 8 6 5 4 5 5 5 6 6 8 12 15 18 21 21 22 22 24 25 25 25 25 25 22 18 14 11 8 4 1 2 7 11 14 14 15 14 15 15 16 18 19 20 20 20 19 19 21 20 19 20 20 19 19 20 21 25 26 24 23 24 23 24 24 23 22 21 21 21 21 21 21 22 22 23 23
2 2 3 3 2 5 10 6 4 3 3 2 4 2 6 9 12 12 3 6 7 7 5 3 5 6 6 5 6 6 6 12 17 21 23 22 23 23 24 25 27 27 27 28 26 24 21 18 13 9 7 3 1 4 7 8 8 8 9 9 11 13 15 16 18 18 17 17 18 19 20 21 20 20 20 21 22 23 22 21 23 24 23 24 24 23 22 21 21 21 21 20 21 21 22 22 23
3 0 4 3 3 3 7 6 2 3 1 3 1 1 5 6 10 13 5 8 7 6 3 4 6 6 6 5 6 6 6 10 15 20 23 23 22 23 24 25 27 28 28 28 28 27 26 24 20 18 15 11 7 3 2 2 3 3 4 5 5 7 9 11 12 13 14 15 16 17 17 19 19 19 19 20 21 21 21 22 23 24 24 24 24 23 22 22 21 21 20 20 21 21 22 22 22
3 1 3 4 4 3 4 5 3 2 3 1 1 2 6 8 10 14 7 8 7 5 4 6 6 6 6 5 6 6 7 8 10 16 21 22 22 22 23 25 26 28 29 29 29 29 28 26 25 24 22 18 15 11 8 7 6 5 4 4 3 2 2 3 4 6 8 9 11 13 14 16 18 18 18 19 21 22 23 23 24 24 25 24 24 24 23 22 21 20 21 20 20 21 22 23 23
4 3 3 4 4 4 5 5 4 5 4 3 3 4 8 10 12 13 8 8 7 6 6 6 6 6 6 6 6 6 7 8 9 15 19 21 22 22 23 25 27 28 29 29 28 28 27 27 25 24 23 22 21 19 17 15 14 13 13 12 12 12 10 8 7 5 4 4 4 5 7 9 11 13 15 17 18 20 20 22 23 23 24 24 24 23 22 22 22 21 21 20 21 22 22 23 23
7 5 4 4 4 5 6 7 5 2 4 6 6 7 7 9 11 9 9 8 8 7 6 6 6 6 6 6 6 6 7 7 10 16 20 22 23 23 23 25 26 28 29 28 28 28 28 27 26 25 23 21 20 20 19 19 18 18 17 17 17 18 16 15 15 13 12 12 10 9 8 8 7 7 8 10 12 14 16 18 19 20 21 21 21 21 21 22 22 21 20 21 22 22 22 23 22
4 3 3 4 5 6 6 6 6 1 1 6 6 5 6 9 9 7 8 8 9 7 6 7 6 5 5 6 6 6 6 6 11 16 20 23 24 24 25 26 27 29 30 29 30 30 29 28 27 26 24 21 20 19 18 18 18 18 19 19 19 18 17 16 16 15 15 14 14 13 13 12 11 9 8 8 8 9 10 11 13 14 15 16 17 18 19 19 19 19 19 20 20 21 22 22 22
2 3 3 4 5 7 7 6 6 1 3 5 3 3 8 9 4 6 6 7 8 6 6 6 6 6 5 6 7 6 5 6 10 15 19 23 25 25 26 28 29 29 29 30 30 29 29 29 28 26 24 22 22 21 19 19 19 18 19 20 19 18 18 17 17 16 15 14 13 13 13 13 13 11 10 9 8 8 8 8 8 9 10 10 12 14 15 16 17 18 19 19 19 19 20 20 20
4 2 2 5 4 4 7 6 5 2 3 4 2 2 9 7 3 6 6 7 5 5 7 6 5 6 6 6 6 5 6 7 8 11 16 21 23 24 26 27 28 28 29 30 29 29 29 29 28 26 24 23 22 21 21 21 20 18 19 19 18 19 20 19 18 17 15 14 14 13 13 13 13 13 12 11 9 8 8 8 8 8 8 9 9 10 12 13 15 16 17 19 19 18 18 18 19
3 3 3 5 3 1 4 5 5 3 1 2 2 3 7 4 4 6 6 5 6 7 8 7 6 6 6 6 5 6 7 7 7 8 12 17 21 23 25 25 27 29 30 30 29 30 30 29 28 26 25 24 22 21 20 20 19 18 18 17 17 18 18 15 15 15 15 15 14 14 14 14 13 13 12 12 11 10 9 9 9 9 8 8 9 9 10 10 11 13 15 16 17 17 18 19 19
4 6 6 5 5 6 7 4 5 4 2 2 1 3 5 3 2 3 4 4 6 6 7 8 6 5 5 5 6 7 6 6 6 7 9 14 18 21 23 25 26 29 30 29 29 29 29 29 28 26 25 24 23 21 19 17 17 16 16 16 15 16 17 16 17 18 18 16 16 15 14 13 12 12 12 11 11 11 11 10 10 10 10 9 9 9 9 9 10 10 12 14 15 16 18 19 18
4 6 10 11 9 9 7 3 5 4 3 3 4 3 5 4 1 4 3 4 5 5 6 7 6 5 5 6 6 6 5 5 5 7 8 12 16 19 23 25 27 28 28 27 27 28 29 29 29 28 27 25 24 22 20 19 20 20 20 21 22 22 23 23 22 21 20 19 18 16 14 12 11 11 11 11 11 11 11 11 11 11 11 11 11 10 10 9 9 9 10 11 13 15 17 18 18
3 5 9 11 8 6 5 2 2 0 3 3 3 1 5 5 4 4 5 5 4 4 6 5 4 5 5 5 5 4 5 5 5 7 9 12 15 18 21 24 25 26 26 26 28 29 30 30 30 30 29 28 26 24 23 23 25 25 26 27 27 26 26 23 21 20 20 19 17 16 15 14 12 12 11 11 11 11 11 11 11 11 11 12 12 12 11 11 10 9 9 9 10 12 14 16 18
3 4 4 6 6 6 6 5 4 3 3 3 3 1 3 5 4 3 6 6 5 4 5 4 4 4 4 4 4 4 4 4 4 5 7 11 14 17 19 21 23 24 25 27 29 30 30 31 31 30 30 29 27 26 26 27 28 28 28 28 28 27 25 24 21 20 19 17 17 17 16 15 15 14 13 12 12 11 11 11 12 11 12 12 12 12 12 12 12 11 10 9 9 10 11 14 17
6 3 6 6 6 5 5 5 2 1 1 4 4 0 2 5 4 1 4 4 2 3 2 2 2 3 3 3 3 3 3 3 4 4 6 10 14 16 18 20 22 24 26 28 29 29 30 30 31 31 31 30 28 28 29 30 31 30 30 30 29 28 26 25 24 23 22 21 20 20 19 18 17 16 15 15 14 13 13 13 13 13 13 13 13 13 13 12 12 12 11 11 10 10 10 12 15
4 5 6 5 5 5 4 5 3 2 1 5 6 4 2 5 4 1 2 3 3 3 3 2 2 1 2 2 2 2 3 3 4 5 8 11 13 15 17 19 21 23 24 26 27 28 29 30 30 31 31 30 29 28 30 31 31 31 31 30 30 28 27 26 25 26 26 25 25 25 23 23 22 21 20 19 18 18 17 15 14 13 14 13 13 13 13 13 13 13 13 12 12 11 11 11 13
4 5 5 6 5 4 4 2 3 2 3 6 8 8 5 4 5 2 3 2 4 6 4 3 3 1 2 1 0 1 3 3 4 5 9 11 12 14 17 19 19 21 23 25 26 27 28 28 29 30 30 28 27 27 28 30 30 30 30 29 29 28 27 26 27 28 27 26 27 26 25 25 24 24 24 24 24 24 23 21 19 16 15 14 13 13 14 14 14 14 14 13 13 13 13 13 13
5 4 4 3 4 4 4 4 3 1 6 5 4 4 5 4 4 2 3 4 2 8 8 8 7 5 4 3 1 0 3 3 4 4 6 9 11 13 16 17 17 19 21 23 24 24 26 26 27 28 28 26 25 25 27 28 29 28 27 27 27 26 25 26 26 26 26 25 25 25 24 24 24 24 24 25 26 26 26 25 24 22 21 18 17 15 15 15 14 15 15 15 16 16 16 15 15
5 4 4 3 3 3 2 3 0 3 6 3 2 1 2 6 4 2 3 5 4 5 8 11 10 8 6 5 3 1 3 3 4 4 4 6 8 10 12 14 15 17 18 19 21 22 24 24 25 26 26 24 24 24 26 27 28 28 26 26 26 25 25 25 25 24 23 23 23 23 24 24 24 24 24 25 25 25 25 25 25 25 25 24 22 20 18 17 16 16 17 17 18 18 17 16 16
4 5 4 4 2 0 3 3 2 4 5 3 2 1 2 5 2 1 4 5 5 3 6 8 9 9 7 5 4 2 2 2 3 3 3 5 6 8 10 11 13 15 15 17 19 20 22 23 23 25 24 22 22 23 25 27 28 27 26 26 26 25 25 25 24 24 23 23 23 23 23 23 23 23 23 23 22 22 22 22 23 23 24 24 24 24 23 21 20 19 18 19 18 18 17 17 16
3 4 5 4 4 4 4 4 3 4 4 2 2 1 2 3 1 3 4 4 3 3 6 6 6 6 5 4 3 2 1 1 1 2 3 3 5 6 8 9 11 12 14 16 17 18 20 21 22 22 22 21 21 22 24 26 26 25 25 25 25 24 24 24 24 23 23 23 23 23 23 23 23 23 22 22 22 22 22 22 22 22 23 23 23 24 24 24 24 23 22 21 21 20 19 18 18
2 3 4 2 4 4 2 3 5 3 3 2 2 2 3 3 1 4 2 3 5 5 5 6 6 4 4 4 4 3 3 2 1 0 0 1 3 5 6 8 9 11 13 15 16 17 18 19 20 20 20 19 20 21 22 23 23 23 23 23 22 22 22 22 22 22 23 23 23 23 24 24 24 24 24 24 24 24 24 24 23 23 22 22 22 22 22 23 23 24 24 24 24 24 23 22 20
2 2 3 4 4 5 1 2 1 3 2 4 2 2 3 1 1 4 3 4 4 3 4 6 6 5 5 4 5 4 4 4 3 4 4 4 5 5 6 8 9 11 13 14 15 15 16 17 17 17 18 18 18 19 20 20 20 20 21 20 20 20 20 20 20 20 20 20 20 21 21 22 23 24 24 25 25 26 25 25 25 24 24 23 23 22 22 22 22 22 22 23 24 26 26 25 24
5 2 5 3 2 4 3 1 2 2 3 4 1 3 3 2 1 2 2 3 4 4 5 6 5 5 5 6 5 5 5 5 5 5 6 6 7 7 7 8 8 10 11 12 13 13 14 14 15 15 16 17 17 18 18 19 19 19 19 19 18 17 17 17 17 16 16 17 17 17 18 19 20 21 22 23 24 25 25 26 26 26 26 26 26 25 25 25 24 23 22 21 22 23 24 24 25
4 3 3 3 2 1 2 2 2 2 4 4 2 3 3 4 4 2 5 9 9 8 7 7 7 7 6 6 6 6 5 5 5 5 5 7 8 8 8 7 7 9 10 10 10 10 12 12 13 14 14 15 15 15 16 17 17 17 16 16 15 13 13 13 13 12 13 14 14 15 16 16 17 19 19 20 22 23 24 25 26 27 27 28 29 29 28 28 28 27 25 24 23 23 24 23 23
3 1 1 2 2 3 2 2 3 3 3 4 5 4 3 5 5 8 11 13 12 12 10 9 9 8 8 7 6 6 6 6 6 5 5 7 9 8 8 7 7 7 8 8 8 9 10 10 11 12 12 12 12 12 13 13 13 12 11 10 9 8 8 9 10 10 10 12 12 13 14 14 15 17 17 18 20 21 22 23 25 26 27 28 29 30 30 30 30 30 29 29 28 27 27 26 25
1 1 1 1 0 1 1 1 2 3 3 3 5 6 5 4 3 8 11 11 13 14 12 9 8 9 8 7 7 7 6 6 6 5 6 8 10 8 8 8 7 7 7 7 7 7 8 9 9 10 9 9 9 9 9 8 8 8 7 6 6 7 7 8 10 10 11 12 12 13 14 14 15 17 17 19 21 22 23 24 25 26 27 28 29 30 30 31 31 31 31 31 31 31 30 30 29
5 4 4 4 3 2 2 4 1 1 2 3 4 8 7 3 2 4 6 9 13 13 11 9 9 9 9 7 7 7 7 7 6 6 7 9 10 9 9 8 7 7 6 6 6 5 6 6 7 7 7 7 6 6 7 6 6 7 7 7 9 10 10 11 13 13 13 13 13 14 14 15 17 18 19 20 22 24 25 26 27 28 29 29 30 31 31 31 31 32 32 32 32 31 31 31 30
Wind_Direction
325 324 318 313 311 305 312 56 69 322 70 69 311 6 248 233 226 223 275 285 309 259 223 175 130 118 96 166 205 205 183 177 169 131 214 237 284 199 181 176 157 171 181 179 182 186 184 184 187 188 190 189 191 192 191 190 188 194 193 192 182 176 178 175 176 170 161 157 155 148 144 143 144 147 150 150 141 141 145 144 141 133 125 114 105 104 106 110 107 103 43 350 356 352 346 344 346
334 330 326 315 321 343 267 69 89 332 50 63 285 177 261 305 320 213 219 223 213 260 309 101 122 77 61 91 162 142 238 219 189 174 258 255 268 198 183 182 169 169 182 182 183 187 186 185 188 190 190 190 193 193 193 190 190 195 197 198 185 180 183 178 177 170 162 163 159 150 149 151 152 154 156 154 150 151 150 143 133 126 124 116 114 119 92 101 182 217 264 295 322 323 319 320 321
336 332 338 321 323 34 62 43 88 48 70 114 280 241 292 1 226 228 219 221 229 278 332 341 134 120 75 20 74 129 277 262 213 211 282 231 215 198 188 190 178 170 184 186 184 188 189 187 187 191 191 190 194 196 197 193 192 197 199 200 187 183 185 179 179 173 168 165 160 162 165 167 170 170 168 163 161 158 149 140 132 134 130 126 135 112 79 66 251 255 272 284 300 305 302 301 300
333 335 343 339 18 32 59 40 118 114 108 189 285 270 273 201 227 245 236 243 256 312 339 37 327 220 121 334 262 147 280 277 231 192 272 214 199 199 190 193 186 178 186 190 187 188 191 189 188 191 192 191 194 197 199 196 196 201 201 200 190 184 183 179 182 177 171 168 169 180 179 178 181 178 172 163 159 157 153 148 147 154 145 133 132 104 60 339 305 286 278 276 282 289 289 288 286
330 341 353 18 90 34 87 70 102 95 173 186 86 277 253 214 231 252 261 282 278 233 240 118 330 291 137 238 183 163 253 274 266 204 243 225 205 197 187 194 192 184 187 192 190 190 193 191 189 191 193 194 195 198 199 197 198 204 204 202 194 186 182 181 183 178 173 174 180 188 189 186 184 175 164 160 161 164 163 160 164 171 169 162 124 55 313 304 303 300 287 272 270 273 273 273 272
339 347 18 50 92 85 97 83 104 292 226 174 151 261 257 226 226 248 282 304 284 203 195 152 287 320 310 261 196 208 223 16 310 214 231 219 209 195 185 196 196 189 188 192 194 193 194 193 192 192 193 195 198 199 198 198 201 206 207 204 198 188 184 184 183 181 178 179 186 190 193 190 181 167 161 172 174 167 162 168 182 190 200 200 157 67 302 298 301 303 289 271 270 271 265 263 259
359 345 19 55 53 35 88 120 191 249 236 170 182 251 264 243 225 279 308 318 307 285 173 184 348 68 281 300 299 243 230 228 237 218 219 200 206 194 189 200 198 192 189 192 196 197 197 195 194 192 194 196 198 200 200 200 203 206 209 206 199 191 188 189 186 184 182 181 191 192 195 191 175 166 175 192 187 168 177 199 210 216 224 232 230 239 276 289 297 298 286 277 282 279 268 263 255
17 7 19 74 35 28 86 120 228 221 242 206 219 242 254 245 193 268 299 316 281 318 331 307 19 66 280 5 328 265 266 247 249 233 204 192 202 194 194 204 199 191 190 194 197 200 200 198 197 195 195 196 198 200 201 203 205 207 210 207 198 194 193 194 189 186 186 185 193 196 199 193 175 178 194 204 197 185 210 226 231 240 246 256 262 266 280 287 291 291 284 284 297 287 274 264 252
29 29 94 69 65 28 48 355 295 243 262 280 277 257 259 252 171 191 286 301 269 305 293 282 58 238 293 353 287 279 313 269 253 217 194 189 200 196 198 205 203 194 191 196 198 202 203 202 200 198 197 197 198 201 203 204 206 207 210 207 199 197 197 198 194 189 190 190 196 200 203 195 180 190 204 210 209 205 218 225 243 261 259 267 276 284 291 289 285 283 280 288 300 287 268 255 240
32 30 107 58 75 32 2 299 306 275 266 276 286 261 261 269 176 244 319 308 283 219 290 262 116 274 301 314 277 292 311 267 231 195 187 186 195 197 202 205 207 202 196 197 200 204 205 205 203 201 200 198 199 201 205 206 206 207 210 208 201 199 199 201 199 195 195 194 199 204 207 199 186 193 204 213 216 212 220 234 260 272 272 279 286 288 289 284 274 271 270 279 286 257 239 235 216
30 2 95 70 67 38 315 251 289 285 285 301 291 260 235 200 147 319 346 313 300 289 300 73 128 240 329 301 266 272 284 257 212 188 184 183 195 199 204 206 207 209 207 204 202 206 208 208 205 204 203 201 201 204 206 206 207 208 211 210 204 202 201 202 203 202 199 197 201 206 211 204 193 195 201 211 218 217 225 241 261 268 267 275 283 286 281 259 256 260 263 264 256 232 215 220 205
62 346 59 82 113 209 212 233 284 285 303 325 297 289 222 161 108 288 271 300 321 333 286 184 185 172 65 300 264 287 304 269 211 187 190 187 197 201 206 209 209 212 214 214 208 207 210 210 208 206 206 205 205 206 208 207 209 209 211 211 207 205 203 203 204 204 201 199 204 207 212 209 200 200 202 209 219 224 231 241 258 266 265 273 283 283 260 232 242 250 257 248 223 228 210 216 210
99 114 78 81 163 174 209 230 272 301 326 327 243 301 4 161 258 242 211 290 308 339 288 214 158 103 226 267 290 312 316 281 200 190 198 192 199 204 210 212 214 215 214 217 215 211 211 212 211 209 208 209 208 209 211 209 210 211 211 212 210 207 206 207 206 206 204 201 205 209 212 212 205 204 206 213 219 225 233 239 254 269 275 280 286 281 251 233 235 246 257 238 208 227 211 217 215
129 149 106 99 80 131 196 257 308 8 314 299 272 301 331 241 251 212 154 324 275 224 276 209 143 106 262 281 323 305 318 334 189 201 204 199 203 206 213 213 216 219 217 217 219 218 215 214 214 212 211 211 212 212 214 213 213 214 214 214 213 210 209 211 210 209 208 204 206 209 213 214 209 207 209 216 222 225 231 237 250 269 279 282 284 279 261 249 241 248 256 234 213 225 217 223 222
129 127 88 109 15 345 219 246 33 122 240 289 303 318 335 277 196 127 186 246 268 220 276 261 140 215 232 211 273 259 313 347 200 215 216 210 208 207 215 213 215 218 220 220 220 223 219 218 216 215 213 212 214 214 216 217 217 217 217 217 216 213 211 214 214 213 212 208 209 211 214 216 211 212 213 218 225 227 231 238 249 265 277 278 279 277 269 263 254 254 254 234 221 224 221 227 229
112 110 67 77 308 319 236 212 109 129 247 261 289 345 340 294 198 337 228 172 279 284 10 241 184 282 208 192 249 278 338 322 221 228 222 217 213 211 217 212 213 218 222 223 222 225 223 221 219 217 216 215 215 216 218 219 220 221 221 220 218 216 214 216 217 217 216 213 213 214 217 218 214 217 218 220 226 230 233 240 251 264 275 275 276 281 279 270 261 260 258 239 225 225 225 229 235
65 77 70 32 212 220 218 199 177 182 264 272 312 8 354 299 307 282 227 128 279 298 344 262 250 252 210 221 273 328 336 299 235 229 219 220 221 219 221 214 214 220 223 224 225 226 225 223 221 220 219 218 217 217 219 220 222 223 223 223 222 220 218 219 220 219 219 217 217 218 220 221 217 219 221 223 227 232 236 241 252 264 273 274 275 284 286 275 264 261 261 244 230 227 224 229 235
52 75 103 234 200 202 191 187 196 185 277 274 311 12 215 287 304 314 325 349 309 308 299 262 275 269 249 262 285 309 305 277 240 221 215 218 223 225 225 220 218 222 223 224 226 226 225 225 224 222 221 220 219 218 219 221 223 223 224 225 223 223 222 221 222 222 222 221 220 221 223 224 222 221 223 226 228 232 236 241 250 261 270 271 274 285 288 281 267 261 261 248 233 225 221 227 231
83 111 126 231 202 214 196 185 203 203 254 268 296 321 224 255 276 346 315 298 325 319 296 249 278 286 280 278 286 305 300 254 237 220 216 218 219 224 228 226 222 224 225 225 227 226 227 227 225 224 223 222 221 219 219 221 223 224 224 225 225 225 225 224 224 224 224 224 224 223 224 226 226 226 227 229 231 234 237 241 248 259 268 269 273 282 285 283 272 262 262 252 235 222 222 228 230
147 124 151 244 214 235 238 203 215 228 244 276 294 305 250 257 254 336 306 301 311 294 280 271 287 294 299 295 299 309 297 252 234 222 225 226 225 226 229 231 229 231 233 231 229 228 228 229 227 225 225 223 222 221 219 221 223 224 224 224 226 226 226 226 225 225 225 225 226 226 227 229 229 230 231 232 234 235 236 241 250 260 263 263 269 277 281 281 273 264 262 256 242 223 225 232 233
169 140 191 231 188 239 255 226 230 238 217 227 278 330 307 286 237 214 336 321 306 283 255 222 251 284 300 307 318 308 286 265 244 233 235 238 240 237 238 241 242 244 242 237 233 232 232 231 230 227 227 225 224 223 219 219 221 224 225 224 225 226 227 227 226 226 226 226 227 227 228 230 231 233 233 232 235 236 237 241 251 257 255 256 265 272 278 279 273 266 262 262 255 232 228 236 236
160 218 213 207 154 235 266 244 236 229 190 239 295 315 299 307 312 219 215 265 273 278 268 235 235 269 291 300 311 315 295 277 259 246 246 249 254 253 252 253 254 256 252 247 243 238 235 235 234 229 228 227 226 226 222 220 220 222 224 224 224 225 227 228 229 228 227 228 228 229 230 231 230 233 234 233 235 236 237 242 250 253 250 255 266 272 277 278 274 270 267 268 266 250 234 236 238
214 274 270 233 187 231 280 289 261 250 325 282 282 289 316 355 307 240 210 235 243 265 275 278 279 282 292 300 312 319 306 289 281 272 267 267 273 274 274 273 271 270 264 259 255 247 240 238 236 233 230 229 228 228 225 222 221 223 225 226 225 226 228 228 229 230 230 230 231 230 230 232 231 231 234 233 236 238 238 244 249 248 248 256 268 275 279 278 276 272 271 271 270 263 247 239 240
195 266 296 271 212 225 264 287 280 284 276 266 268 318 310 284 285 282 252 251 244 258 278 298 339 16 330 328 331 323 327 329 330 333 331 319 306 302 300 292 284 278 270 267 263 256 249 241 237 235 233 232 230 228 226 224 223 223 226 228 228 228 229 230 230 231 231 230 231 233 232 233 233 234 234 234 237 239 241 246 247 245 247 256 267 276 277 278 276 273 273 272 272 268 258 247 245
192 235 275 288 261 246 270 288 282 282 266 262 285 290 261 223 248 309 272 268 261 259 285 317 360 37 24 11 2 352 11 15 10 14 17 10 0 357 356 338 310 283 273 274 271 263 257 248 240 237 236 235 233 229 226 226 225 224 225 228 230 229 230 233 233 231 233 233 229 230 234 236 236 237 237 237 238 239 243 246 247 249 251 256 265 272 274 276 276 273 273 273 272 271 264 255 250
212 213 266 300 297 288 297 290 276 278 256 238 284 280 271 236 256 272 260 267 295 317 336 358 15 28 33 35 27 24 27 20 13 15 16 14 15 12 8 5 357 325 287 278 275 271 265 255 246 241 238 235 234 231 229 228 227 226 226 228 230 231 233 236 238 234 233 236 234 229 231 236 239 240 240 241 241 242 243 243 248 255 254 254 262 269 273 275 274 272 272 273 274 272 267 260 257
195 198 259 263 284 290 274 265 273 285 262 225 239 272 286 306 311 269 262 264 22 9 1 14 26 30 40 46 38 34 32 23 16 20 19 14 14 8 5 7 7 2 332 289 278 278 272 264 255 246 240 235 234 234 233 231 229 229 228 229 229 231 235 236 239 239 230 229 234 235 236 240 242 242 243 245 246 244 243 244 250 256 255 254 258 267 274 274 272 271 270 273 274 272 270 265 264
156 281 296 280 303 298 260 263 281 295 281 212 187 255 300 10 206 240 258 354 43 8 8 23 33 39 51 49 38 36 31 25 23 29 24 11 7 4 6 8 9 15 15 353 305 276 266 267 262 251 241 235 234 235 235 234 234 234 232 232 233 234 238 237 235 241 237 229 233 238 243 247 246 243 242 244 246 246 245 247 251 254 255 255 257 265 272 272 270 269 269 271 271 269 268 266 266
147 34 325 302 343 319 280 283 296 157 258 192 154 288 315 266 225 241 266 0 4 1 30 34 33 44 53 49 43 39 27 25 28 29 20 12 11 10 14 17 20 28 35 34 24 13 294 275 264 253 245 238 235 235 237 238 239 239 237 235 237 237 238 238 235 237 242 239 239 244 250 254 254 250 246 246 247 249 251 253 256 258 261 260 260 265 269 270 268 266 268 269 269 267 266 266 267
297 21 15 305 355 319 283 318 36 354 245 192 146 298 294 263 249 258 290 356 352 3 24 26 34 53 53 46 46 39 28 27 27 23 16 15 17 19 23 27 34 41 48 55 56 56 59 63 50 285 256 245 237 235 236 238 241 242 242 240 240 240 238 238 239 243 247 245 244 247 254 256 257 258 255 253 253 255 254 253 258 265 267 263 261 263 267 269 267 266 268 269 269 268 268 268 267
311 319 356 333 340 279 292 296 276 322 300 160 131 209 265 275 276 280 299 51 18 9 8 22 51 67 53 41 44 36 29 27 24 22 19 19 21 25 30 34 42 49 54 59 60 62 64 66 64 56 46 253 237 233 234 236 243 246 248 246 244 244 241 240 242 245 246 246 246 245 249 255 257 258 255 251 250 252 254 256 262 268 268 264 261 262 264 266 266 266 267 269 270 269 269 269 269
23 291 299 335 202 262 307 296 194 227 313 75 125 195 269 275 282 286 322 70 38 14 2 49 72 63 51 37 35 31 21 23 23 21 20 22 24 28 34 39 46 52 57 61 63 66 66 66 66 69 73 72 182 229 234 234 242 248 253 254 251 247 244 245 247 247 245 248 253 252 253 256 256 255 253 250 249 251 257 263 266 267 266 264 262 262 262 264 265 265 267 269 270 271 271 271 271
353 221 254 273 224 270 316 307 205 193 334 28 128 224 281 280 283 288 340 52 32 15 15 70 74 56 52 42 33 33 20 20 19 16 16 22 28 32 39 45 51 56 60 64 65 66 67 67 69 71 72 72 77 92 158 190 208 220 233 237 242 244 243 247 251 254 255 258 262 263 264 264 261 258 258 257 256 256 258 261 262 263 264 264 263 261 261 263 264 264 267 269 270 272 272 272 274
311 350 235 253 231 238 297 299 320 41 76 358 280 213 259 275 284 289 331 29 11 17 59 80 72 58 56 47 40 37 27 26 15 8 11 20 29 37 44 50 57 62 65 67 68 69 69 70 72 73 74 74 76 79 88 98 110 118 119 123 132 158 204 241 250 258 263 267 273 275 275 274 270 266 263 262 260 258 258 259 260 259 260 261 260 259 258 260 262 263 265 269 271 271 271 272 275
224 225 223 258 248 235 259 267 298 10 16 310 284 250 261 276 280 287 328 15 16 36 79 84 67 61 55 44 44 38 32 32 14 7 14 24 31 37 45 51 58 63 67 69 71 72 73 73 75 77 78 79 82 85 88 93 96 95 94 92 87 83 81 78 72 60 44 24 352 326 306 297 291 282 275 270 267 265 264 263 262 260 260 259 256 255 255 258 261 261 263 269 271 269 269 271 274
208 221 207 225 247 249 247 254 268 336 333 295 270 263 268 274 278 300 339 11 41 55 77 75 61 61 53 47 45 35 38 31 10 14 24 30 34 37 43 48 55 62 66 69 72 72 72 74 76 75 76 81 87 90 91 93 92 90 89 87 82 78 78 79 75 69 65 59 53 47 39 30 12 342 317 299 286 279 273 269 266 264 263 260 258 257 258 261 262 263 266 270 270 268 268 268 270
199 215 223 223 236 264 266 269 275 204 273 275 261 273 278 268 282 330 348 13 41 50 74 70 59 58 48 50 44 34 40 25 17 26 32 36 39 41 44 47 52 58 61 64 67 68 69 72 74 73 74 78 81 83 86 88 87 86 85 83 80 76 75 76 74 70 68 66 64 60 55 50 44 36 22 0 338 317 300 290 282 277 273 270 267 266 265 266 267 268 271 272 272 269 268 268 267
227 220 252 264 240 259 268 267 285 218 177 261 305 318 280 269 305 360 9 38 33 28 70 69 61 63 50 49 43 32 37 23 24 28 31 36 39 42 45 47 49 51 52 57 61 64 68 70 70 71 73 76 77 78 81 82 83 84 85 85 82 78 73 70 69 66 66 67 66 63 60 55 49 44 38 29 16 0 350 338 328 320 311 302 295 289 284 282 281 281 281 280 278 273 270 270 267
231 209 228 263 247 278 285 279 312 19 173 261 323 288 274 285 43 39 33 60 47 32 60 56 53 60 46 43 36 30 35 25 22 23 26 33 38 42 46 47 49 50 51 55 59 62 65 66 66 68 71 74 77 79 81 83 85 87 87 87 85 81 75 71 71 69 65 64 63 63 62 60 55 50 44 37 30 20 9 357 353 350 344 339 331 321 313 309 304 300 296 290 284 277 275 273 269
206 183 186 249 251 309 281 284 331 4 184 268 244 240 276 288 87 66 47 70 71 55 60 55 49 57 52 46 35 34 35 22 16 17 21 29 36 40 43 45 49 52 52 53 56 59 62 64 65 67 68 71 75 79 83 87 89 89 89 90 89 87 83 81 80 72 65 62 61 60 58 56 55 53 49 44 38 31 20 7 359 349 343 340 336 334 333 331 325 317 310 299 289 279 277 278 275
234 208 202 232 240 220 229 276 333 344 354 359 10 312 296 268 158 105 75 70 65 52 57 55 42 48 56 52 44 38 35 24 20 18 15 25 34 38 43 47 50 51 51 50 53 57 62 66 67 68 69 70 73 78 85 91 92 91 92 91 89 86 79 73 68 60 56 57 56 55 53 53 52 49 46 43 39 35 29 22 15 6 359 351 342 339 337 338 338 332 322 309 296 284 278 280 280
273 232 209 218 229 227 234 304 358 2 333 343 25 341 294 312 310 162 126 59 52 39 48 56 40 37 46 46 42 33 33 31 26 27 22 27 35 40 45 48 50 52 52 53 55 59 63 67 69 70 70 70 72 76 82 87 86 83 81 76 70 67 61 56 54 52 53 55 55 54 53 51 48 43 39 35 32 29 25 21 18 15 10 6 1 356 350 347 344 339 332 318 306 296 284 278 278
278 246 206 211 218 215 218 187 105 203 257 295 32 246 265 316 317 192 144 87 72 50 47 53 39 36 43 43 38 25 28 31 29 32 29 33 38 42 45 47 51 54 57 60 61 62 64 66 68 69 68 68 70 73 77 79 80 78 76 74 69 66 61 57 56 57 57 57 58 57 54 50 45 39 34 28 22 17 14 11 10 8 4 4 4 2 1 359 353 347 342 329 319 310 292 279 279
247 252 155 166 184 188 188 167 169 225 256 319 2 149 258 291 280 208 132 105 74 59 54 45 37 37 39 42 40 32 24 23 31 35 31 35 40 44 47 50 54 59 63 66 66 65 67 68 69 69 69 68 68 71 74 75 76 76 76 76 73 70 67 65 63 62 60 59 58 55 51 48 43 38 33 26 20 12 8 5 2 358 356 355 354 355 356 357 358 355 351 343 333 322 306 289 284
243 211 110 129 152 154 141 130 156 300 10 307 301 124 268 266 270 346 111 124 92 103 121 81 63 52 46 44 37 39 35 26 34 38 36 40 44 49 53 56 60 63 66 69 70 70 71 71 72 71 70 69 68 69 72 74 75 75 74 74 73 71 69 68 65 63 60 58 55 52 47 45 41 36 31 26 20 14 8 4 360 356 355 354 351 349 348 348 351 353 354 353 345 335 324 306 293
225 130 96 68 73 80 78 103 112 36 22 250 233 185 221 268 280 312 147 181 200 171 169 166 135 95 77 56 21 28 37 35 39 41 41 44 50 56 61 63 64 67 70 73 74 74 74 74 73 72 71 70 69 69 71 72 72 71 70 69 68 67 65 64 62 58 55 54 53 50 48 45 42 40 36 32 28 23 17 10 4 359 356 354 351 349 348 345 344 345 348 351 350 345 337 326 311
137 106 68 36 33 40 38 61 83 46 275 246 222 197 190 266 287 229 181 212 186 161 160 186 182 187 177 152 347 4 25 26 30 38 44 49 57 64 67 67 66 69 74 76 76 76 76 76 75 75 72 71 70 69 69 70 68 67 66 64 63 61 59 57 55 53 50 48 48 47 46 44 42 40 38 35 33 29 27 23 19 14 6 359 355 353 351 349 346 343 343 343 344 342 336 332 323
111 93 69 47 340 13 24 357 41 170 253 266 257 206 174 228 265 233 248 298 203 170 169 176 176 183 195 186 191 316 20 26 28 33 41 49 55 60 65 67 68 72 75 76 78 79 79 79 78 77 75 72 71 69 69 69 68 67 66 64 63 60 58 56 55 53 49 46 44 42 40 39 37 35 33 31 29 26 25 24 23 21 17 13 7 360 351 346 342 337 335 334 333 332 329 327 322
96 106 96 90 321 351 347 308 307 229 253 279 288 156 181 237 241 240 279 304 278 210 173 166 167 172 185 192 194 167 35 32 34 35 34 43 50 55 62 68 71 75 78 80 83 83 82 81 79 78 76 73 72 70 70 70 69 68 67 67 66 65 63 62 61 60 56 53 49 46 43 40 37 35 32 30 27 23 21 20 19 19 18 16 13 9 3 354 346 338 333 330 328 329 328 325 322
145 150 135 137 155 200 268 270 269 271 274 282 266 178 267 269 267 265 272 292 291 225 152 154 160 163 173 181 179 135 60 31 23 32 34 45 54 59 67 73 77 80 82 85 86 86 85 83 81 81 79 76 73 71 69 68 68 67 65 65 64 63 62 61 61 60 58 56 53 51 49 46 44 41 38 34 30 27 25 21 19 17 15 13 11 10 8 5 1 356 349 343 338 333 329 327 323
175 161 135 151 160 171 225 225 218 264 286 296 280 216 209 226 282 290 273 306 346 85 118 129 140 151 156 146 140 134 121 85 23 33 36 51 66 72 76 79 81 83 83 84 85 85 84 82 81 80 78 75 72 69 66 65 65 63 60 58 56 54 53 52 51 49 47 45 43 42 40 38 37 35 32 30 27 24 23 22 19 17 14 11 8 6 4 3 3 1 359 357 353 346 340 333 327
202 127 109 168 182 168 216 210 174 194 293 290 221 220 217 187 273 317 329 32 45 79 112 130 145 147 136 142 164 177 183 189 178 134 167 119 102 95 92 89 87 85 84 83 82 82 81 79 78 77 74 71 67 65 63 61 60 57 54 51 48 46 44 42 42 39 37 34 31 30 28 25 23 21 19 17 15 14 13 13 13 12 11 9 6 4 1 359 358 357 356 356 354 353 350 346 340
164 122 181 219 175 133 133 267 106 89 263 264 192 225 283 305 333 342 26 69 79 107 141 154 168 162 153 182 196 191 194 195 195 197 191 167 135 119 110 101 95 91 87 83 80 79 79 78 78 76 72 68 63 61 60 59 57 55 51 47 44 41 38 36 35 33 30 27 24 22 19 17 14 11 9 7 6 5 4 4 4 3 4 3 2 0 358 356 355 354 352 351 350 348 347 347 346
123 168 217 206 129 95 98 241 334 34 245 269 188 199 245 243 255 341 43 148 175 193 189 182 186 181 188 205 204 200 200 196 197 198 189 171 149 135 126 112 101 96 92 87 83 80 79 77 76 75 70 65 61 58 58 55 54 52 48 45 41 37 36 33 31 29 25 20 19 17 14 12 9 5 2 360 357 356 354 354 353 353 353 353 352 352 351 350 349 349 348 347 345 342 340 340 341
122 185 201 122 151 178 95 171 232 241 245 279 277 233 226 207 204 192 194 196 193 198 200 197 197 198 207 212 207 207 201 195 199 197 193 177 161 148 138 128 114 105 98 92 90 87 85 83 79 77 72 67 64 61 60 56 53 51 47 43 39 34 32 30 27 24 19 16 14 11 10 7 3 360 356 353 350 348 345 343 342 342 341 340 341 341 342 342 341 341 341 341 341 339 336 334 333
57 103 18 54 160 173 151 163 181 200 237 270 277 282 264 227 198 182 197 194 182 186 194 197 200 201 206 204 198 200 197 196 195 190 192 180 167 158 147 139 130 119 112 105 103 99 95 89 85 83 79 77 73 68 65 61 56 54 49 44 38 30 27 22 18 15 11 9 5 0 359 357 354 353 348 345 344 341 338 335 333 332 332 331 332 332 334 335 334 334 335 335 336 336 334 332 330
124 165 228 277 176 146 226 237 135 154 200 235 268 274 261 248 192 183 197 189 180 186 185 186 200 205 208 205 195 197 196 197 196 186 184 177 168 161 148 142 140 137 133 127 121 114 106 101 96 93 90 89 85 78 74 69 62 55 46 37 23 12 8 1 359 359 356 355 353 348 345 341 340 342 339 337 337 335 333 330 328 327 327 328 328 328 329 329 328 328 328 328 329 330 329 328 327
159 184 205 196 169 135 244 258 212 147 204 196 241 268 266 254 203 194 192 181 184 185 172 176 200 205 208 209 199 199 197 195 196 188 177 173 170 165 157 154 154 154 153 150 142 130 121 115 109 106 103 98 90 81 70 59 49 35 24 17 7 1 356 350 348 347 346 344 341 338 334 329 329 332 331 330 330 329 328 326 324 324 324 325 325 325 325 325 325 324 324 323 324 325 324 323 323